Location: Emblem
(62.4273°N, 6.4710°E)
Time: 00:37:52
(UTC+01:00)

Transit 2A Rocket - Pass Details

Date: 16 October 2024
Orbit: 584 x 906 km, 66.7° (Epoch: 05 November)

Event Time Altitude Azimuth Distance (km) Brightness Sun altitude
Rises 22:19:58 0° 284° (WNW) 3,524 9.4 -27.8°
Reaches altitude 10° 22:22:35 10° 288° (WNW) 2,563 8.5 -28.1°
Maximum altitude 22:28:29 59° 8° (N) 986 5.6 -28.6°
Enters shadow 22:28:59 57° 31° (NNE) 1,001 5.5 -28.6°
